Weather History for Pittsfield, IL

Change the Weather History Date:

Tuesday, April 30, 2013

  Actual Average (KUIN) Record (KUIN)
Temperature  
Mean Temperature 74 °F 58 °F  
Max Temperature 85 °F 68 °F 90 °F (1936)
Min Temperature 64 °F 48 °F 30 °F (1908)
Degree Days  
Heating Degree Days 0 8  
Month to date heating degree days 370  
Since 1 July heating degree days 5430  
Cooling Degree Days 10 1  
Month to date cooling degree days 16  
Year to date cooling degree days 18  
Growing Degree Days 24 (Base 50)    
Moisture  
Dew Point 56 °F    
Average Humidity 56    
Maximum Humidity 83    
Minimum Humidity 27    
Precipitation  
Precipitation 0.00 in 0.13 in 1.92 in (1942)
Month to date precipitation 3.69  
Year to date precipitation 9.55  
Sea Level Pressure  
Sea Level Pressure 29.84 in    
Wind  
Wind Speed 12 mph (South)    
Max Wind Speed 17 mph    
Max Gust Speed 28 mph    
Visibility 10 miles    
Events      
T = Trace of Precipitation, MM = Missing Value Source: NWS Daily Summary

Daily Weather History Graph

Daily Weather History Graph

Search for Another Location

Airport:

Trip Planner

Search our weather history database for the weather conditions in past years. The results will help you decide how hot, cold, wet, or windy it might be!

Date:

Astronomy

Apr. 30, 2013 Rise Set
Actual Time 6:04 AM CDT 7:56 PM CDT
Civil Twilight 5:35 AM CDT 8:25 PM CDT
Nautical Twilight 5:00 AM CDT 9:01 PM CDT
Astronomical Twilight 4:22 AM CDT 9:39 PM CDT
Moon 12:19 AM CDT (4/30) 10:34 AM CDT (4/30)
Length of Visible Light 14h 49m
Length of Day
13h 51m
Waning Gibbous, 70% of the Moon is Illuminated
Apr 30
Waning Gibbous
May 2
Last Quarter
May 9
New
May 17
First Quarter
May 24
Full

Hourly Weather History & Observations

Time (CDT) Temp. Heat Index Dew Point Humidity Pressure Visibility Wind Dir Wind Speed Gust Speed Precip Events Conditions
12:15 AM 69.3 °F - 58.6 °F 69% 29.76 in 10.0 mi South 17.3 mph 24.2 mph N/A   Clear
12:35 AM 68.7 °F - 58.8 °F 71% 29.76 in 10.0 mi South 16.1 mph 19.6 mph N/A   Clear
12:55 AM 68.4 °F - 59.0 °F 72% 29.77 in 10.0 mi South 15.0 mph 19.6 mph N/A   Clear
1:15 AM 68.2 °F - 59.2 °F 73% 29.77 in 10.0 mi South 12.7 mph - N/A   Clear
1:35 AM 68.0 °F - 59.4 °F 74% 29.77 in 10.0 mi South 11.5 mph - N/A   Clear
1:55 AM 67.5 °F - 59.5 °F 76% 29.77 in 10.0 mi South 11.5 mph - N/A   Clear
2:15 AM 67.3 °F - 59.7 °F 77% 29.77 in 10.0 mi South 11.5 mph - N/A   Clear
2:35 AM 66.6 °F - 59.5 °F 78% 29.77 in 10.0 mi South 11.5 mph - N/A   Clear
2:55 AM 66.4 °F - 59.9 °F 80% 29.78 in 10.0 mi South 11.5 mph - N/A   Clear
3:15 AM 66.0 °F - 59.9 °F 81% 29.78 in 10.0 mi South 11.5 mph - N/A   Clear
3:35 AM 65.5 °F - 59.7 °F 82% 29.78 in 10.0 mi South 10.4 mph - N/A   Clear
3:55 AM 65.3 °F - 59.9 °F 83% 29.78 in 10.0 mi South 12.7 mph - N/A   Clear
4:15 AM 65.3 °F - 59.9 °F 83% 29.78 in 10.0 mi South 10.4 mph - N/A   Clear
4:35 AM 65.3 °F - 59.9 °F 83% 29.79 in 10.0 mi South 12.7 mph - N/A   Clear
4:55 AM 65.5 °F - 59.9 °F 82% 29.79 in 10.0 mi South 10.4 mph - N/A   Clear
5:15 AM 65.3 °F - 59.5 °F 82% 29.80 in 10.0 mi South 9.2 mph - N/A   Clear
5:35 AM 65.3 °F - 59.4 °F 81% 29.80 in 10.0 mi South 9.2 mph - N/A   Clear
5:55 AM 64.8 °F - 59.2 °F 82% 29.80 in 10.0 mi South 10.4 mph - N/A   Clear
6:15 AM 64.6 °F - 59.0 °F 82% 29.81 in 10.0 mi South 10.4 mph - N/A   Clear
6:35 AM 64.4 °F - 59.0 °F 83% 29.82 in 10.0 mi South 9.2 mph - N/A   Clear
6:55 AM 64.4 °F - 59.0 °F 83% 29.83 in 10.0 mi South 9.2 mph - N/A   Clear
7:15 AM 64.9 °F - 59.2 °F 82% 29.84 in 10.0 mi South 10.4 mph - N/A   Clear
7:35 AM 66.0 °F - 59.4 °F 79% 29.84 in 10.0 mi South 9.2 mph - N/A   Clear
7:55 AM 67.3 °F - 59.9 °F 77% 29.85 in 10.0 mi South 9.2 mph - N/A   Clear
8:15 AM 68.9 °F - 59.9 °F 73% 29.85 in 10.0 mi SSW 10.4 mph - N/A   Clear
8:35 AM 70.2 °F - 60.4 °F 71% 29.85 in 10.0 mi SSW 8.1 mph - N/A   Clear
8:55 AM 71.2 °F - 60.3 °F 68% 29.85 in 10.0 mi SSW 8.1 mph - N/A   Clear
9:15 AM 72.7 °F - 60.4 °F 65% 29.85 in 10.0 mi SSW 9.2 mph - N/A   Clear
9:35 AM 74.1 °F - 60.4 °F 62% 29.85 in 10.0 mi SSW 9.2 mph - N/A   Clear
9:55 AM 75.2 °F - 59.4 °F 58% 29.85 in 10.0 mi SW 12.7 mph 21.9 mph N/A   Clear
10:15 AM 76.3 °F - 59.2 °F 55% 29.86 in 10.0 mi SSW 16.1 mph - N/A   Clear
10:35 AM 77.2 °F - 58.8 °F 53% 29.86 in 10.0 mi SSW 12.7 mph 19.6 mph N/A   Clear
10:55 AM 77.9 °F - 58.1 °F 50% 29.86 in 10.0 mi SSW 15.0 mph 20.7 mph N/A   Clear
11:15 AM 79.2 °F - 57.2 °F 47% 29.86 in 10.0 mi SSW 13.8 mph 17.3 mph N/A   Clear
11:35 AM 80.1 °F 80.1 °F 55.2 °F 42% 29.86 in 10.0 mi SW 13.8 mph - N/A   Clear
11:55 AM 81.5 °F 80.8 °F 53.4 °F 38% 29.86 in 10.0 mi SSW 10.4 mph 21.9 mph N/A   Clear
12:15 PM 81.5 °F 80.8 °F 53.6 °F 38% 29.85 in 10.0 mi SW 11.5 mph 20.7 mph N/A   Clear
12:35 PM 82.0 °F 81.6 °F 56.5 °F 41% 29.85 in 10.0 mi SSW 10.4 mph 17.3 mph N/A   Clear
12:55 PM 82.8 °F - 52.5 °F 35% 29.85 in 10.0 mi SSW 13.8 mph 17.3 mph N/A   Clear
1:15 PM 82.9 °F - 52.5 °F 35% 29.84 in 10.0 mi SSW 13.8 mph 21.9 mph N/A   Clear
1:35 PM 83.3 °F - 50.4 °F 32% 29.84 in 10.0 mi SSW 13.8 mph 24.2 mph N/A   Clear
1:55 PM 83.8 °F 82.4 °F 53.6 °F 35% 29.83 in 10.0 mi South 8.1 mph - N/A   Clear
2:15 PM 84.6 °F 83.0 °F 53.2 °F 34% 29.83 in 10.0 mi SSW 13.8 mph 20.7 mph N/A   Clear
2:35 PM 84.9 °F - 50.4 °F 30% 29.83 in 10.0 mi South 15.0 mph 24.2 mph N/A   Clear
2:55 PM 85.1 °F - 50.2 °F 30% 29.83 in 10.0 mi South 13.8 mph 23.0 mph N/A   Clear
3:15 PM 85.5 °F - 50.4 °F 30% 29.83 in 10.0 mi South 15.0 mph 23.0 mph N/A   Clear
3:35 PM 85.1 °F - 50.7 °F 30% 29.82 in 10.0 mi South 11.5 mph 17.3 mph N/A   Clear
3:55 PM 85.5 °F - 49.5 °F 29% 29.82 in 10.0 mi SSE 12.7 mph 21.9 mph N/A   Clear
4:15 PM 85.5 °F - 48.2 °F 27% 29.83 in 10.0 mi South 17.3 mph 27.6 mph N/A   Clear
4:35 PM 85.3 °F - 48.2 °F 28% 29.83 in 10.0 mi South 16.1 mph 21.9 mph N/A   Clear
4:55 PM 85.3 °F - 49.5 °F 29% 29.83 in 10.0 mi SSE 13.8 mph 21.9 mph N/A   Clear
5:15 PM 85.3 °F - 49.5 °F 29% 29.84 in 10.0 mi SSW 10.4 mph - N/A   Clear
5:35 PM 85.1 °F - 49.8 °F 29% 29.84 in 10.0 mi South 11.5 mph - N/A   Clear
5:55 PM 84.7 °F - 50.2 °F 30% 29.84 in 10.0 mi SSE 10.4 mph - N/A   Clear
6:15 PM 84.6 °F - 50.4 °F 31% 29.84 in 10.0 mi SSE 8.1 mph - N/A   Clear
6:35 PM 83.8 °F - 50.4 °F 31% 29.84 in 10.0 mi South 8.1 mph - N/A   Clear
6:55 PM 82.8 °F - 50.4 °F 32% 29.84 in 10.0 mi South 4.6 mph - N/A   Clear
7:15 PM 81.0 °F - 50.4 °F 34% 29.84 in 10.0 mi SSE 6.9 mph - N/A   Clear
7:35 PM 77.2 °F - 57.4 °F 50% 29.85 in 10.0 mi SE 11.5 mph - N/A   Clear
7:55 PM 76.5 °F - 57.7 °F 52% 29.85 in 10.0 mi SE 13.8 mph 19.6 mph N/A   Clear
8:15 PM 75.7 °F - 57.6 °F 53% 29.86 in 10.0 mi SE 11.5 mph - N/A   Clear
8:35 PM 75.0 °F - 56.8 °F 53% 29.87 in 10.0 mi SE 11.5 mph - N/A   Clear
8:55 PM 73.8 °F - 56.8 °F 55% 29.87 in 10.0 mi SE 12.7 mph - N/A   Clear
9:15 PM 73.4 °F - 56.7 °F 56% 29.88 in 10.0 mi SSE 12.7 mph - N/A   Clear
9:35 PM 72.5 °F - 56.8 °F 58% 29.90 in 10.0 mi SSE 13.8 mph - N/A   Clear
9:55 PM 72.0 °F - 56.5 °F 58% 29.91 in 10.0 mi SSE 12.7 mph - N/A   Clear
10:15 PM 71.1 °F - 56.5 °F 60% 29.91 in 10.0 mi SSE 10.4 mph - N/A   Clear
10:35 PM 71.4 °F - 56.1 °F 58% 29.92 in 10.0 mi SSE 11.5 mph - N/A   Clear
10:55 PM 71.6 °F - 55.4 °F 57% 29.92 in 10.0 mi South 11.5 mph - N/A   Clear
11:15 PM 71.6 °F - 54.7 °F 55% 29.93 in 10.0 mi South 11.5 mph - N/A   Clear
11:35 PM 71.4 °F - 54.1 °F 54% 29.94 in 10.0 mi South 11.5 mph - N/A   Clear
11:55 PM 71.1 °F - 54.1 °F 55% 29.95 in 10.0 mi South 10.4 mph - N/A   Clear